Grand Island, NE

8:06 PM CDT on April 25, 2017 (GMT -0500)
Central Nebraska Regional

Weather History for KGRI - January, 2012

Change the Weather History Date:

Sunday, January 15, 2012

  Actual Average Record
Temperature  
Mean Temperature 42 °F 25 °F  
Max Temperature 62 °F 36 °F 70 °F (2006)
Min Temperature 22 °F 14 °F -14 °F (2005)
Degree Days  
Heating Degree Days 23 40  
Month to date heating degree days 446 600  
Since 1 July heating degree days 2778 3119  
Cooling Degree Days 0 0  
Month to date cooling degree days 0 0  
Year to date cooling degree days 0 0  
Moisture  
Dew Point 17 °F    
Average Humidity 49    
Maximum Humidity 77    
Minimum Humidity 20    
Precipitation  
Precipitation 0.00 in 0.02 in 0.30 in (1906)
Month to date precipitation T 0.24  
Year to date precipitation T 0.24  
Snow  
Snow 0.00 in 0.20 in 3.00 in (2003)
Month to date snowfall T 2.8  
Since 1 July snowfall 8.3 12.1  
Snow Depth 0.00 in    
Sea Level Pressure  
Sea Level Pressure 29.81 in    
Wind  
Wind Speed 10 mph (SSW)    
Max Wind Speed 18 mph    
Max Gust Speed 24 mph    
Visibility 10 miles    
Events      
T = Trace of Precipitation, MM = Missing Value Source: NWS Daily Summary

Daily Weather History Graph

Daily Weather History Graph

Search for Another Location

Airport or City:

Trip Planner

Search our weather history database for the weather conditions in past years. The results will help you decide how hot, cold, wet, or windy it might be!

Date:

Astronomy

Jan. 15, 2012 Rise Set
Actual Time 7:56 AM CST 5:29 PM CST
Civil Twilight 7:25 AM CST 5:59 PM CST
Nautical Twilight 6:51 AM CST 6:33 PM CST
Astronomical Twilight 6:18 AM CST 7:06 PM CST
Moon No Moon Rise 11:10 AM CST (1/15)
Length of Visible Light 10h 33m
Length of Day
9h 33m
Waning Gibbous, 57% of the Moon is Illuminated
Jan 15
Waning Gibbous
Jan 16
Last Quarter
Jan 23
New
Jan 30
First Quarter
Feb 7
Full

Hourly Weather History & Observations

Time (CST) Temp. Windchill Dew Point Humidity Pressure Visibility Wind Dir Wind Speed Gust Speed Precip Events Conditions
12:53 AM 32.0 °F 22.1 °F 12.9 °F 45% 30.00 in 10.0 mi South 13.8 mph - N/A   Clear
1:53 AM 34.0 °F 23.4 °F 12.9 °F 42% 29.96 in 10.0 mi South 17.3 mph - N/A   Clear
2:53 AM 30.9 °F 21.7 °F 12.9 °F 47% 29.94 in 10.0 mi South 11.5 mph - N/A   Clear
3:53 AM 33.8 °F 24.3 °F 14.0 °F 44% 29.87 in 10.0 mi South 13.8 mph - N/A   Clear
4:53 AM 30.9 °F 21.2 °F 14.0 °F 50% 29.89 in 10.0 mi South 12.7 mph - N/A   Clear
5:53 AM 30.0 °F 20.0 °F 15.1 °F 54% 29.88 in 10.0 mi South 12.7 mph - N/A   Clear
6:53 AM 28.9 °F 19.2 °F 15.1 °F 56% 29.89 in 10.0 mi South 11.5 mph - N/A   Clear
7:53 AM 30.0 °F 20.5 °F 16.0 °F 56% 29.88 in 10.0 mi South 11.5 mph - N/A   Clear
8:53 AM 32.0 °F 23.0 °F 17.1 °F 54% 29.88 in 10.0 mi SSW 11.5 mph - N/A   Clear
9:53 AM 37.4 °F 29.3 °F 17.6 °F 45% 29.82 in 10.0 mi SSW 12.7 mph 20.7 mph N/A   Clear
10:53 AM 43.0 °F 36.8 °F 19.9 °F 40% 29.85 in 10.0 mi SSW 11.5 mph - N/A   Clear
11:53 AM 50.0 °F - 21.0 °F 32% 29.81 in 10.0 mi SSW 12.7 mph - N/A   Clear
12:53 PM 55.0 °F - 19.9 °F 25% 29.77 in 10.0 mi SW 15.0 mph - N/A   Clear
1:53 PM 59.0 °F - 19.9 °F 22% 29.72 in 10.0 mi SSW 9.2 mph - N/A   Clear
2:53 PM 61.0 °F - 19.9 °F 21% 29.72 in 10.0 mi SSW 12.7 mph - N/A   Clear
3:53 PM 61.0 °F - 19.0 °F 20% 29.69 in 10.0 mi South 10.4 mph - N/A   Clear
4:53 PM 55.9 °F - 19.9 °F 25% 29.70 in 10.0 mi South 12.7 mph - N/A   Clear
5:53 PM 44.1 °F 40.1 °F 19.9 °F 38% 29.73 in 10.0 mi South 6.9 mph - N/A   Clear
6:53 PM 39.0 °F 34.0 °F 19.9 °F 46% 29.75 in 10.0 mi South 6.9 mph - N/A   Clear
7:53 PM 39.9 °F 35.8 °F 21.0 °F 47% 29.75 in 10.0 mi SSW 5.8 mph - N/A   Clear
8:53 PM 34.0 °F 31.0 °F 19.9 °F 56% 29.75 in 10.0 mi SW 3.5 mph - N/A   Clear
9:53 PM 32.0 °F 27.5 °F 19.0 °F 59% 29.73 in 10.0 mi SW 4.6 mph - N/A   Clear
10:53 PM 21.9 °F 11.0 °F 16.0 °F 78% 29.76 in 10.0 mi North 10.4 mph - N/A   Clear
11:53 PM 26.1 °F - 17.1 °F 69% 29.75 in 10.0 mi Calm Calm - N/A   Clear